Location: Siratepeler Tepesi
(39.1042°N, 32.0781°E)
Time: 11:43:12
(UTC+00:00)

NOSS 3-2 (C) - Pass Details

Date: 11 April 2026
Orbit: 672 x 1536 km, 63.4° (Epoch: 2 January)

Event Time Altitude Azimuth Distance (km) Brightness Sun altitude
Rises 17:54:26 0° 329° (NNW) 3,901 7.6 -17.2°
Reaches altitude 10° 17:57:00 10° 334° (NNW) 3,060 6.9 -17.6°
Maximum altitude 18:04:23 56° 52° (NE) 1,553 4.4 -18.9°
Enters shadow 18:08:57 29° 116° (ESE) 2,351 4.9 -19.7°
